GFSFLT2_con_3kmhel_132.txt.gz
Helicity
74 103 131 179 179 169 164 151 144 121 100 89 94 83 81 71 65 45 59 71 82 89 82 68 65 55 53 53 33 -10 3 22
73 92 106 108 112 140 142 127 113 101 84 76 77 75 75 73 74 55 60 70 83 87 86 77 68 59 53 52 38 -5 8 18
70 78 101 101 98 103 105 96 91 81 67 64 67 46 49 67 54 84 64 73 76 86 82 75 70 64 58 48 26 8 12 6
68 79 86 95 96 89 74 58 41 36 43 35 32 36 40 47 72 78 59 75 69 79 81 76 49 51 48 38 8 24 4 7
74 89 96 79 78 92 69 67 53 23 34 42 20 16 31 27 56 59 50 66 62 71 81 52 33 35 51 35 28 20 6 3
48 86 109 80 79 96 100 74 63 39 26 27 29 19 31 26 40 56 51 63 57 56 53 40 48 31 44 40 37 17 25 11
26 66 102 97 82 75 85 77 66 38 30 24 12 13 29 34 31 52 39 65 48 54 43 44 54 52 45 39 41 35 35 22
12 32 84 110 91 77 80 86 76 35 37 20 25 12 27 30 35 39 51 79 44 36 39 43 43 52 60 50 38 41 38 34
23 10 56 116 104 96 84 83 77 79 58 25 18 19 37 47 40 39 59 70 51 40 52 47 49 48 48 61 43 44 42 34
89 34 42 76 109 112 92 82 70 66 48 32 49 43 29 45 67 60 65 102 69 60 67 68 55 51 40 47 50 42 47 39
108 64 40 61 99 147 115 85 63 53 62 44 38 89 72 60 77 82 100 105 106 91 86 84 82 73 54 54 57 57 49 33
136 114 87 77 140 215 182 127 82 74 61 48 37 65 108 105 90 102 115 108 126 143 142 110 102 101 86 81 72 59 60 54
113 169 120 148 150 172 193 170 132 110 106 84 83 78 106 154 117 109 125 120 153 164 180 150 148 121 193 138 104 80 75 64
126 158 124 163 141 212 228 212 134 110 116 90 89 127 158 170 124 109 112 135 135 178 184 234 210 208 197 179 136 102 99 90
118 155 124 167 127 163 223 184 146 140 99 111 103 129 152 178 127 115 111 114 130 160 170 167 210 210 145 172 176 133 109 86
144 164 145 135 153 148 188 250 202 149 136 110 122 114 134 128 120 151 158 167 147 128 125 134 122 157 193 135 108 190 203 103
188 145 170 118 165 164 179 194 189 116 115 95 107 132 125 161 187 217 239 232 194 110 141 107 91 101 145 177 150 160 195 150
168 202 185 136 152 186 151 137 131 145 165 181 145 149 175 235 345 456 380 337 255 114 59 119 118 84 100 166 212 220 168 187
226 220 353 388 385 389 288 128 184 168 143 167 162 180 222 275 284 346 383 293 236 248 279 206 121 107 78 187 198 191 158 143
295 337 436 536 480 484 499 466 506 401 333 259 185 189 141 124 152 176 176 222 247 269 260 81 107 164 163 184 202 208 205 169

GFSFLT2_con_3kmhel_135.txt.gz
Helicity
21 58 74 129 123 131 137 151 166 161 134 117 104 84 60 56 41 45 50 53 63 75 65 55 56 54 41 25 -7 -36 40 40
40 47 76 95 93 110 121 126 147 147 114 93 87 84 65 50 36 34 49 53 61 71 65 55 53 48 49 26 2 -22 6 24
19 38 64 86 96 98 107 113 117 124 100 75 72 42 45 43 18 64 46 57 62 67 65 62 60 45 42 26 7 -3 9 3
47 40 54 71 83 100 93 92 73 58 57 39 13 27 41 38 45 73 54 57 62 64 68 67 40 42 40 17 0 6 11 26
41 66 73 61 66 89 108 99 85 64 52 51 21 16 50 37 57 59 53 53 49 56 67 43 31 10 64 28 19 14 13 17
37 80 77 81 81 89 93 104 98 93 64 55 39 15 52 51 52 49 50 63 37 42 43 26 26 -3 20 46 17 6 8 67
67 75 122 87 109 96 95 104 101 81 86 66 34 28 51 50 43 48 52 51 24 49 26 32 19 37 27 38 36 34 28 -3
43 76 126 108 105 131 110 151 103 76 80 93 38 27 72 49 44 47 45 44 18 58 6 40 9 53 49 23 32 40 46 38
143 67 101 113 124 127 140 112 100 81 59 74 64 6 44 76 52 62 51 48 35 6 58 11 47 22 83 56 18 32 28 64
197 96 94 112 129 153 144 140 154 105 65 80 55 4 10 50 68 56 52 107 45 39 33 100 30 24 33 88 53 56 44 44
92 206 125 99 130 158 156 158 169 171 153 77 64 47 22 66 46 33 66 76 65 57 55 129 74 50 45 78 50 57 73 59
99 108 185 120 131 145 159 209 173 132 120 82 62 85 38 66 54 89 53 89 75 48 59 108 51 99 74 107 95 104 63 56
89 136 160 147 119 160 156 196 209 145 138 100 110 71 72 61 90 119 86 64 83 101 96 114 122 118 146 146 128 108 85 83
52 75 148 201 160 141 164 202 258 217 159 143 111 93 94 118 163 128 104 82 102 132 158 166 168 141 163 148 129 92 89 112
58 52 103 170 179 174 143 179 206 216 228 169 149 176 168 139 153 146 115 88 143 197 211 161 183 176 120 143 99 82 60 77
40 55 39 134 123 121 147 188 199 194 247 236 148 158 150 159 171 154 139 160 170 273 229 172 164 155 167 81 74 104 124 114
130 49 42 82 132 105 192 142 171 211 262 171 153 123 152 154 156 155 173 313 383 279 218 183 143 128 147 152 98 101 98 115
345 394 43 76 150 118 163 139 165 203 197 251 218 228 217 193 146 156 292 378 352 293 175 191 156 146 129 177 139 79 96 128
240 272 277 192 182 107 135 175 148 179 197 258 347 321 255 192 169 228 309 365 364 358 417 335 362 200 315 268 249 142 115 76
291 198 272 164 101 189 285 488 176 222 180 252 322 290 187 152 223 303 266 280 259 225 199 212 288 257 300 233 86 127 108 134

GFSFLT2_con_3kmhel_138.txt.gz
Helicity
39 38 88 70 77 93 97 105 131 147 159 127 87 60 53 52 48 47 48 47 48 50 46 40 37 27 11 -7 -29 -10 76 40
27 24 92 80 72 88 100 103 117 143 155 130 89 64 39 48 50 50 55 55 49 53 47 45 40 32 16 -11 -24 4 45 30
46 39 79 92 83 90 100 107 123 138 141 136 100 59 33 33 29 56 59 61 53 55 51 49 49 37 19 -7 -27 16 38 52
19 18 47 92 87 113 113 106 122 139 136 130 98 48 40 29 39 72 74 68 61 61 57 50 42 35 19 0 -8 15 19 68
83 63 64 70 70 146 150 138 144 147 138 142 105 62 42 9 81 79 91 85 78 71 61 36 14 9 57 15 11 7 27 79
19 132 150 118 67 144 132 154 164 168 151 160 131 93 76 52 86 86 83 88 68 66 52 24 13 -13 50 30 -1 8 39 83
34 53 202 205 140 121 150 112 172 172 171 173 139 104 108 83 87 77 82 94 56 62 41 26 3 38 61 47 32 18 24 31
163 79 109 217 189 114 177 178 140 161 163 196 158 123 118 104 90 77 67 97 45 72 14 58 6 42 33 48 41 32 15 48
95 158 136 190 209 134 155 187 204 193 161 192 183 132 105 107 111 72 67 76 34 74 43 39 52 78 66 60 56 37 40 55
61 76 118 152 191 206 136 198 185 221 185 199 202 157 107 113 123 84 74 103 27 58 64 14 33 29 96 92 86 75 51 71
56 63 58 102 189 202 207 154 183 157 210 221 217 165 163 134 108 111 82 86 75 68 43 33 102 24 36 119 90 79 101 81
370 64 82 42 77 169 171 226 169 188 193 190 247 238 186 157 116 128 96 80 75 79 47 87 123 98 44 67 104 106 116 109
319 197 200 38 85 188 150 161 224 176 220 244 290 304 198 204 122 152 131 133 81 118 100 62 85 74 124 130 126 106 94 88
233 187 199 86 59 62 175 148 185 281 187 228 221 249 200 208 208 184 144 158 101 112 142 139 121 125 192 183 152 131 106 111
197 232 306 257 69 80 94 159 148 152 160 210 168 286 233 179 227 292 223 194 172 141 132 138 171 197 185 211 208 167 109 119
95 220 313 479 105 108 74 182 139 173 186 198 227 215 241 213 226 236 238 197 151 192 223 215 221 180 176 126 116 170 168 173
47 89 156 294 473 90 95 146 177 119 197 145 220 214 303 256 206 203 255 201 157 238 352 301 296 265 256 262 188 90 34 152
85 28 128 260 277 236 138 44 140 110 117 162 258 290 357 312 267 218 197 256 261 362 379 355 280 247 196 262 375 407 347 253
108 120 206 278 146 173 76 -26 119 94 75 257 232 314 339 298 273 209 204 237 349 427 377 321 256 234 266 177 316 318 340 204
135 208 272 403 292 156 99 -39 -121 -71 43 229 201 279 270 307 302 212 188 274 357 386 366 254 255 247 257 281 299 294 293 182

GFSFLT2_con_3kmhel_141.txt.gz
Helicity
67 53 96 85 77 77 78 84 86 90 102 103 114 93 75 60 44 40 42 47 46 44 47 31 13 4 -11 1 32 48 42 11
44 66 73 116 111 90 95 84 80 90 99 102 107 107 83 74 57 41 44 48 52 52 46 36 23 4 -5 2 33 97 47 52
87 102 74 118 130 110 113 102 92 90 97 114 130 113 104 83 68 60 50 49 51 59 49 41 28 8 -3 -6 29 82 63 31
142 138 116 99 147 154 147 141 129 125 127 139 138 127 110 91 71 68 61 56 58 63 52 48 36 11 -5 -6 15 50 38 47
-11 143 145 108 98 197 187 185 171 162 153 168 160 134 114 102 102 81 84 76 82 77 66 42 24 15 12 15 6 36 60 58
13 -20 78 136 122 109 191 209 206 195 179 171 184 171 149 133 129 126 114 107 101 91 63 38 18 9 31 41 12 56 73 75
74 6 58 67 107 183 196 171 216 229 228 200 193 179 179 162 153 142 124 118 109 89 66 38 15 1 1 39 26 59 48 56
203 170 152 66 95 92 212 235 185 238 244 251 213 202 195 179 175 158 138 125 113 101 73 43 10 24 21 43 24 23 66 62
135 169 293 179 78 107 134 218 268 247 206 241 248 203 228 203 208 161 149 133 108 88 56 35 28 -14 27 44 44 30 35 72
88 98 161 272 402 258 106 108 226 220 222 230 217 212 220 244 209 174 153 158 103 111 63 53 60 22 -0 21 37 65 54 64
7 112 114 89 259 231 312 110 100 235 225 228 242 213 229 250 213 190 159 142 119 86 72 108 72 62 44 20 42 69 88 76
83 115 185 91 4 153 202 237 156 98 210 225 233 266 220 257 236 192 174 151 130 98 85 105 67 41 77 72 57 42 68 99
91 89 203 139 -91 10 170 254 165 177 97 122 194 210 275 284 279 217 157 168 156 128 166 140 81 103 100 92 102 96 115 111
175 128 171 237 117 -62 36 208 200 120 180 103 94 169 247 274 313 252 197 197 173 170 152 204 160 144 149 155 166 123 115 102
173 214 197 226 268 42 -77 56 152 230 126 147 95 107 180 265 286 317 256 214 186 178 169 153 204 178 180 211 238 200 204 152
105 151 196 165 276 158 129 6 85 163 123 115 112 62 120 206 294 309 337 278 203 216 206 173 228 225 259 227 262 234 249 267
43 108 132 126 57 128 141 133 118 110 158 116 131 101 119 203 304 308 336 350 295 263 205 199 225 263 292 327 230 283 266 291
1 31 152 207 133 143 162 95 99 52 178 157 118 94 103 128 299 326 366 389 389 317 229 210 219 223 257 266 261 296 225 245
17 11 97 154 168 173 133 104 108 66 118 121 76 24 53 99 207 380 332 425 376 305 257 240 263 279 249 237 296 278 279 275
11 15 25 114 151 198 200 104 3 115 7 83 -24 -74 -74 -11 67 307 287 362 355 368 344 305 314 260 293 309 277 229 250 227